Madison, WI

10:49 AM CST on December 14, 2019 (GMT -0600)
Dane County Regional-Truax

Weather History for KMSN - November, 2019

Change the Weather History Date:

Thursday, November 14, 2019

  Actual Average Record
Temperature  
Mean Temperature 23 °F 37 °F  
Max Temperature 27 °F 45 °F 71 °F (1971)
Min Temperature 19 °F 29 °F 2 °F (1959)
Degree Days  
Heating Degree Days 42 28  
Month to date heating degree days 537 348  
Since 1 July heating degree days 1136 1061  
Cooling Degree Days 0 0  
Month to date cooling degree days 0 0  
Year to date cooling degree days 656 568  
Moisture  
Dew Point 18 °F    
Average Humidity 78    
Maximum Humidity 96    
Minimum Humidity 66    
Precipitation  
Precipitation T in 0.08 in 1.04 in (1956)
Month to date precipitation 0.81 1.12  
Year to date precipitation 43.04 31.47  
Snow  
Snow T in 0.10 in 2.00 in (1997)
Month to date snowfall 7.5 0.8  
Since 1 July snowfall 15.6 1.3  
Since 1 September snowfall 15.6 1.3  
Snow Depth 1.0 in    
Sea Level Pressure  
Sea Level Pressure 30.21 in    
Wind  
Wind Speed 3 mph ()    
Max Wind Speed 12 mph    
Max Gust Speed 19 mph    
Visibility 9.3 miles    
Events Snow    
T = Trace of Precipitation, MM = Missing Value Source: Averaged Metar Reports

Daily Weather History Graph

Daily Weather History Graph

Search for Another Location

Airport or City:

Astronomy

Nov. 14, 2019 Rise Set
Actual Time 6:48 AM CST 4:34 PM CST
Civil Twilight 6:17 AM CST 5:05 PM CST
Nautical Twilight 5:43 AM CST 5:39 PM CST
Astronomical Twilight 5:10 AM CST 6:12 PM CST
Moon 6:18 PM CST 8:45 AM CST
Length of Visible Light 10h 47m
Length of Day
9h 45m
Waning Gibbous, 95% of the Moon is Illuminated
Nov 14
Waning Gibbous
Nov 19
Last Quarter
Nov 26
New
Dec 4
First Quarter
Dec 11
Full

Hourly Weather History & Observations

Time (CST) Temp. Windchill Dew Point Humidity Pressure Visibility Wind Dir Wind Speed Gust Speed Precip Events Conditions
12:53 AM 19.0 °F - 17.1 °F 92% 30.10 in 6.0 mi Calm Calm - N/A   Overcast
1:33 AM 21.0 °F - 19.0 °F 92% 30.06 in 7.0 mi Calm Calm - N/A   Overcast
1:53 AM 21.0 °F - 19.0 °F 92% 30.11 in 7.0 mi Calm Calm - N/A   Overcast
2:31 AM 21.9 °F 17.2 °F 19.9 °F 92% 30.07 in 8.0 mi WNW 3.5 mph - N/A   Overcast
2:45 AM 21.9 °F 17.2 °F 19.9 °F 92% 30.07 in 8.0 mi WNW 3.5 mph - N/A   Overcast
2:53 AM 21.9 °F 15.7 °F 19.9 °F 92% 30.12 in 8.0 mi NW 4.6 mph - N/A   Overcast
3:53 AM 23.0 °F 18.4 °F 21.0 °F 92% 30.14 in 8.0 mi NNW 3.5 mph - N/A   Overcast
4:53 AM 24.1 °F 18.2 °F 21.0 °F 88% 30.16 in 9.0 mi NNW 4.6 mph - N/A   Overcast
5:14 AM 24.1 °F 19.7 °F 21.0 °F 88% 30.12 in 10.0 mi NW 3.5 mph - N/A   Overcast
5:31 AM 24.1 °F 18.2 °F 19.9 °F 84% 30.12 in 10.0 mi NNW 4.6 mph - N/A   Overcast
5:53 AM 24.1 °F 19.7 °F 19.9 °F 84% 30.18 in 10.0 mi NNW 3.5 mph - N/A   Overcast
6:53 AM 24.1 °F 19.7 °F 19.9 °F 84% 30.21 in 10.0 mi NNW 3.5 mph - N/A   Overcast
7:53 AM 25.0 °F 19.3 °F 17.1 °F 72% 30.23 in 10.0 mi NNW 4.6 mph - N/A   Overcast
8:53 AM 24.1 °F 19.7 °F 15.1 °F 69% 30.26 in 9.0 mi NNW 3.5 mph - 0.00 in Snow Light Snow
9:53 AM 24.1 °F 17.0 °F 15.1 °F 69% 30.27 in 10.0 mi NW 5.8 mph - 0.00 in Snow Light Snow
10:53 AM 25.0 °F 17.1 °F 15.1 °F 66% 30.28 in 9.0 mi NNW 6.9 mph - 0.00 in Snow Light Snow
11:53 AM 25.0 °F 16.3 °F 16.0 °F 69% 30.27 in 10.0 mi NW 8.1 mph - 0.00 in   Overcast
12:53 PM 25.0 °F 19.3 °F 16.0 °F 69% 30.26 in 10.0 mi Variable 4.6 mph - N/A   Overcast
1:53 PM 25.0 °F 15.5 °F 17.1 °F 72% 30.25 in 10.0 mi WNW 9.2 mph 18.4 mph N/A   Overcast
2:53 PM 26.1 °F 18.4 °F 17.1 °F 69% 30.26 in 10.0 mi West 6.9 mph - N/A   Overcast
3:53 PM 27.0 °F 21.6 °F 17.1 °F 66% 30.27 in 10.0 mi West 4.6 mph - N/A   Mostly Cloudy
4:11 PM 27.0 °F 20.5 °F 17.1 °F 66% 30.23 in 10.0 mi Variable 5.8 mph - N/A   Scattered Clouds
4:53 PM 26.1 °F 21.9 °F 17.1 °F 69% 30.27 in 10.0 mi Variable 3.5 mph - N/A   Partly Cloudy
5:53 PM 26.1 °F 18.4 °F 18.0 °F 71% 30.27 in 10.0 mi West 6.9 mph - N/A   Clear
6:53 PM 26.1 °F 19.4 °F 19.0 °F 75% 30.27 in 10.0 mi Variable 5.8 mph - N/A   Clear
7:53 PM 25.0 °F 15.5 °F 19.0 °F 78% 30.26 in 10.0 mi WSW 9.2 mph - N/A   Clear
8:53 PM 25.0 °F 19.3 °F 18.0 °F 75% 30.27 in 10.0 mi Variable 4.6 mph - N/A   Clear
9:53 PM 24.1 °F 17.0 °F 17.1 °F 75% 30.29 in 10.0 mi West 5.8 mph - N/A   Clear
10:53 PM 25.0 °F - 18.0 °F 75% 30.28 in 10.0 mi Calm Calm - N/A   Clear
11:53 PM 24.1 °F 19.7 °F 17.1 °F 75% 30.29 in 10.0 mi Variable 3.5 mph - N/A   Clear